Home   Weather   Stassfurt   Past weeks

Flag for Germany Past Weather in Stassfurt, Saxony-Anhalt, Germany — Yesterday and Last 2 Weeks

Now
28 °F

Sunny.


Feels Like: 18 °F
Forecast: 37 / 48 °F
Wind: 12 mph from Southwest

Location: Leipzig-Schkeuditz

Current Time: Dec 7, 2016 at 11:48:28 am

Latest Report: Dec 7, 2016 at 11:20 am


Visibility: 10 mi

Pressure: 30.48 "Hg

Humidity: 80%

Dew Point: 23 °F

Location of StassfurtLocation

Past Weather in Stassfurt — Graph

°F

Stassfurt Temperature Yesterday

Maximum temperature yesterday: 34 °F (at 1:50 pm)
Minimum temperature yesterday: 21 °F (at 1:50 am)
Average temperature yesterday: 27 °F

High & Low Weather Summary for the Past Weeks

 TemperatureHumidityPressure
High55 °F (Nov 22, 1:20 pm)100% (Nov 23, 1:20 am)30.57 "Hg (Nov 23, 1:20 am)
Low19 °F (Dec 5, 2:50 am)60% (Nov 30, 11:50 am)29.89 "Hg (Nov 22, 10:20 am)
Average34 °F89%30.24 "Hg
* Reported Nov 22 10:20 am — Dec 7 10:20 am, Stassfurt, Weather by CustomWeather, © 2016

Note: Actual official high and low records may vary slightly from our data, if they occured in-between our weather recording intervals... More about our weather records

Advertising

Stassfurt Weather History for the Previous 24 Hours

Scroll right to see more
 ConditionsComfort  
Time TempWeatherWind HumidityBarometerVisibility
10:20 am
Wed, Dec 7
27 °FSunny.9 mph80%30.51 "Hg10 mi
9:50 am25 °FSunny.8 mph86%30.51 "Hg10 mi
9:20 am23 °FSunny.7 mph93%30.51 "Hg10 mi
8:50 am23 °FSunny.7 mph86%30.51 "Hg10 mi
8:20 am23 °FSunny.9 mph86%30.51 "Hg10 mi
7:50 am21 °FClear.7 mph93%30.51 "Hg10 mi
7:20 am21 °FClear.7 mph93%30.51 "Hg10 mi
6:50 am21 °FClear.7 mph93%30.51 "Hg10 mi
6:20 am21 °FClear.6 mph93%30.51 "Hg10 mi
5:50 am23 °FClear.7 mph93%30.51 "Hg10 mi
5:20 am25 °FPassing clouds.8 mph93%30.51 "HgN/A
4:50 am25 °FClear.8 mph93%30.54 "Hg10 mi
4:20 am27 °FClear.7 mph86%30.54 "Hg10 mi
3:50 am25 °FClear.9 mph93%30.54 "Hg10 mi
3:20 am23 °FClear.8 mph93%30.54 "Hg10 mi
2:50 am25 °FClear.7 mph86%30.54 "Hg10 mi
2:20 am25 °FPassing clouds.8 mph93%30.54 "HgN/A
1:50 am27 °FPassing clouds.6 mph93%30.54 "HgN/A
1:20 am25 °FPassing clouds.5 mph93%30.54 "HgN/A
12:50 am25 °FPassing clouds.8 mph93%30.54 "HgN/A
12:20 am27 °FClear.8 mph86%30.54 "Hg10 mi
11:50 pm
Tue, Dec 6
27 °FClear.6 mph86%30.54 "Hg10 mi
11:20 pm28 °FPassing clouds.6 mph86%30.54 "HgN/A
10:50 pm27 °FPassing clouds.8 mph93%30.54 "HgN/A
10:20 pm27 °FPassing clouds.8 mph93%30.54 "HgN/A
9:50 pm28 °FPassing clouds.6 mph93%30.54 "Hg6 mi
9:20 pm28 °FLight freezing rain. Passing clouds.7 mph93%30.54 "Hg6 mi
8:50 pm30 °FSnow flurries. Partly cloudy.6 mph86%30.54 "Hg6 mi
8:20 pm30 °FLight snow. Passing clouds.7 mph86%30.54 "HgN/A
7:50 pm30 °FPassing clouds.6 mph86%30.51 "HgN/A
6:50 pm32 °FPassing clouds.7 mph80%30.51 "HgN/A
6:20 pm32 °FPassing clouds.7 mph87%30.51 "HgN/A
5:50 pm32 °FPartly cloudy.7 mph87%30.51 "HgN/A
5:20 pm32 °FPassing clouds.7 mph80%30.51 "HgN/A
4:50 pm32 °FPassing clouds.7 mph87%30.48 "HgN/A
4:20 pm32 °FPassing clouds.8 mph87%30.48 "HgN/A
3:50 pm32 °FPartly sunny.8 mph87%30.48 "HgN/A
3:20 pm34 °FPartly sunny.8 mph81%30.48 "HgN/A
2:50 pm34 °FPartly sunny.7 mph81%30.45 "HgN/A
2:20 pm34 °FPartly sunny.8 mph81%30.45 "HgN/A
1:50 pm34 °FPartly sunny.8 mph81%30.45 "HgN/A
1:20 pm32 °FPartly sunny.8 mph87%30.45 "HgN/A
12:50 pm32 °FPartly sunny.9 mph80%30.45 "HgN/A
12:20 pm32 °FPartly sunny.10 mph80%30.45 "HgN/A
11:50 am30 °FPartly sunny.9 mph86%30.45 "HgN/A
11:20 am30 °FScattered clouds.12 mph86%30.45 "HgN/A
Weather by CustomWeather, © 2016

See weather overviewHow to use our weather pages